User: anonymous   Login
Location: Unspecified
(0.0000°N, 0.0000°E)
Time: 01:53:36
(UTC+00:00)
Language:

STARLINK-11571 [DTC] - Orbit

View from above orbital plane
View from above orbital plane
View from above satellite
View from above satellite

Ground track
Ground track

The orbit is defined by the following mean orbital elements,

1 62986U          26145.03124453 +.00000000 +00000-0 +18469-2 0 00004
2 62986  42.9992 260.8768 0001139 299.2805  60.7948 15.70912554    07
Epoch (UTC): 25 May 2026 00:44:59
Eccentricity: 0.0001139
inclination: 42.9992°
perigee height: 356 km
apogee height: 357 km
right ascension of ascending node: 260.8768°
argument of perigee: 299.2805°
revolutions per day: 15.70912554
mean anomaly at epoch: 60.7948°

The dashed part of the orbit path shows where the satellite is in the earth's shadow,  

DLR